Location: Helstorf
(52.5868°N, 9.5862°E)
Time: 15:01:52
(UTC+00:00)

COSMOS 2428 - Pass Details

Date: 15 May 2026
Orbit: 844 x 855 km, 70.9° (Epoch: 10 June)

Event Time Altitude Azimuth Distance (km) Brightness Sun altitude
Rises 21:04:53 0° 329° (NNW) 3,428 8.0 -12.8°
Reaches altitude 10° 21:07:28 10° 336° (NNW) 2,487 6.6 -13.0°
Maximum altitude 21:12:55 43° 48° (NE) 1,173 3.5 -13.4°
Enters shadow 21:17:35 14° 116° (ESE) 2,216 4.4 -13.8°
